EW4715 Weather Reports


time (UTC)temp
C
wind
direction
speed
KPH
gust
KPH
rain 1hr
cm
rain 24hr
cm
rain mn
cm
humidity
%
barometer
mb
20260508193055 3 290 0.0 0.0 0.00 0.00 0.00 72 1023.2
20260508191544 3 310 0.0 0.0 0.00 0.00 0.00 72 1023.0
20260508190040 3 71 0.0 8.0 0.00 0.00 0.00 72 1023.0
20260508184541 3 267 0.0 0.0 0.00 0.00 0.00 72 1022.7
20260508183036 3 286 0.0 0.0 0.00 0.00 0.00 72 1022.9
20260508181534 3 36 0.0 0.0 0.00 0.00 0.00 72 1022.8
20260508180038 4 321 0.0 0.0 0.00 0.00 0.00 72 1022.8
20260508174534 3 321 0.0 0.0 0.00 0.00 0.00 72 1022.9
20260508173029 3 321 0.0 0.0 0.00 0.00 0.00 72 1022.7
20260508171537 3 59 0.0 0.0 0.00 0.00 0.00 72 1022.6
20260508170030 3 59 0.0 0.0 0.00 0.00 0.00 72 1022.7
20260508164526 4 59 0.0 0.0 0.00 0.00 0.00 72 1022.6
20260508163024 4 321 0.0 0.0 0.00 0.00 0.00 72 1022.6
20260508161527 4 321 0.0 0.0 0.00 0.00 0.00 72 1022.6
20260508160048 4 321 0.0 0.0 0.00 0.00 0.00 72 1022.7
20260508154522 4 38 0.0 0.0 0.00 0.00 0.00 72 1022.7
20260508153019 3 38 0.0 0.0 0.00 0.00 0.00 72 1022.6
20260508151516 4 302 0.0 0.0 0.00 0.00 0.00 72 1022.6
20260508150019 4 302 0.0 0.0 0.00 0.00 0.00 72 1022.7
20260508144513 4 302 0.0 0.0 0.00 0.03 0.00 72 1022.5
20260508143010 4 302 0.0 0.0 0.00 0.03 0.00 72 1022.4
20260508141505 4 64 0.0 3.2 0.00 0.03 0.00 72 1022.3
20260508140002 4 64 0.0 0.0 0.00 0.03 0.00 72 1022.2
20260508134503 4 64 0.0 0.0 0.00 0.03 0.03 72 1022.3
20260508133102 4 64 0.0 0.0 0.00 0.03 0.03 72 1022.2
20260508131559 5 64 0.0 6.4 0.00 0.03 0.03 72 1022.2
20260508130100 5 53 0.0 3.2 0.00 0.03 0.03 72 1022.2
20260508124553 5 302 3.2 6.4 0.00 0.03 0.03 72 1021.9
20260508123050 6 327 0.0 6.4 0.00 0.03 0.03 72 1021.9
20260508121601 6 300 0.0 3.2 0.00 0.03 0.03 72 1021.9
20260508120045 7 57 0.0 1.6 0.00 0.03 0.03 75 1022.1
20260508114542 7 55 0.0 8.0 0.00 0.03 0.03 83 1022.0
20260508113040 7 297 1.6 3.2 0.00 0.03 0.03 93 1021.9
20260508111539 8 297 0.0 3.2 0.00 0.03 0.03 100 1021.9
20260508110049 9 297 0.0 0.0 0.00 0.03 0.03 100 1021.9
20260508104536 9 297 0.0 3.2 0.00 0.03 0.03 100 1021.8
20260508103037 10 298 0.0 0.0 0.00 0.03 0.03 100 1021.6
20260508101537 10 298 0.0 3.2 0.00 0.03 0.03 100 1021.6
20260508100034 10 273 1.6 8.0 0.00 0.03 0.03 100 1021.5
20260508094536 10 163 1.6 6.4 0.00 0.03 0.03 100 1021.5
20260508093031 11 225 0.0 9.7 0.00 0.03 0.03 100 1021.4
20260508091529 11 360 3.2 9.7 0.00 0.03 0.03 100 1021.3
20260508090028 10 245 0.0 3.2 0.00 0.03 0.03 100 1021.2
20260508084526 10 245 0.0 3.2 0.00 0.03 0.03 100 1021.0
20260508083109 11 245 0.0 3.2 0.00 0.03 0.03 100 1020.9
20260508081522 11 245 0.0 3.2 0.00 0.03 0.03 100 1020.7
20260508080025 11 286 0.0 16.1 0.00 0.03 0.03 100 1020.3
20260508074521 11 265 0.0 8.0 0.00 0.03 0.03 100 1020.0
20260508073015 11 294 0.0 3.2 0.00 0.03 0.03 100 1019.7
20260508071513 11 229 0.0 8.0 0.00 0.03 0.03 100 1019.4
20260508070013 12 101 0.0 6.4 0.00 0.03 0.03 100 1019.2
20260508064534 12 27 0.0 8.0 0.00 0.03 0.03 100 1019.0
20260508063008 13 283 1.6 4.8 0.00 0.03 0.03 100 1018.7
20260508061508 13 51 3.2 8.0 0.00 0.03 0.03 100 1018.7
20260508060005 13 19 3.2 9.7 0.00 0.03 0.03 100 1018.5
20260508054502 13 328 0.0 6.4 0.00 0.03 0.03 100 1018.1
20260508053105 14 279 1.6 6.4 0.00 0.03 0.03 100 1017.8
20260508051600 14 304 6.4 9.7 0.00 0.03 0.03 100 1017.7
20260508044558 15 343 6.4 17.7 0.00 0.03 0.03 100 1017.6
20260508043056 15 69 6.4 9.7 0.00 0.03 0.03 100 1017.4
20260508041600 15 30 3.2 9.7 0.00 0.03 0.03 100 1017.4
20260508040106 15 75 3.2 11.3 0.00 0.03 0.03 100 1017.5
20260508034556 15 55 8.0 12.9 0.00 0.03 0.03 100 1017.6
20260508033053 15 340 6.4 14.5 0.00 0.03 0.03 100 1017.4
20260508031549 14 22 4.8 9.7 0.00 0.03 0.03 100 1017.4
20260508024558 14 294 9.7 19.3 0.00 0.03 0.03 100 1017.5
20260508023047 14 288 4.8 16.1 0.00 0.03 0.03 100 1017.4
20260508021547 14 267 3.2 12.9 0.00 0.03 0.03 100 1017.4
20260508020048 14 267 6.4 9.7 0.00 0.03 0.03 100 1017.3
20260508014546 14 78 3.2 11.3 0.00 0.03 0.03 100 1017.3
20260508013041 14 66 6.4 9.7 0.00 0.03 0.03 100 1017.1
20260508011550 13 346 1.6 8.0 0.00 0.03 0.03 100 1017.1
20260508010044 14 47 1.6 17.7 0.00 0.03 0.03 100 1016.8
20260508004550 13 32 4.8 29.0 0.00 0.03 0.03 100 1016.4
20260508003038 14 285 8.0 19.3 0.00 0.03 0.03 100 1016.3
20260508001537 14 5 6.4 14.5 0.00 0.03 0.03 100 1016.1
20260508000030 13 5 8.0 19.3 0.00 0.03 0.03 100 1016.0
20260507234529 13 9 8.0 30.6 0.00 0.03 0.03 100 1015.7
20260507233024 13 211 4.8 16.1 0.00 0.03 0.03 100 1015.6
20260507231521 12 18 4.8 11.3 0.00 0.03 0.03 100 1015.5
20260507230019 12 127 8.0 16.1 0.00 0.03 0.03 100 1015.2
20260507224518 12 276 6.4 24.1 0.00 0.03 0.03 100 1014.7
20260507223014 11 49 6.4 19.3 0.00 0.03 0.03 100 1014.2
20260507221512 11 273 8.0 22.5 0.00 0.03 0.03 100 1013.8
20260507220011 11 306 1.6 16.1 0.00 0.03 0.03 100 1013.8
20260507214508 11 107 6.4 16.1 0.00 0.03 0.03 100 1013.2
20260507213005 11 49 4.8 16.1 0.00 0.03 0.03 100 1012.7
20260507211503 11 348 11.3 37.0 0.00 0.03 0.03 100 1012.7
20260507210002 9 296 4.8 19.3 0.00 0.03 0.03 100 1012.2
20260507204612 8 338 0.0 8.0 0.00 0.03 0.03 100 1011.9
20260507203058 8 277 1.6 8.0 0.00 0.03 0.03 100 1011.7
20260507201555 9 281 4.8 8.0 0.00 0.03 0.03 100 1011.6
20260507200053 10 227 0.0 17.7 0.00 0.03 0.03 100 1010.9
20260507194551 10 220 4.8 8.0 0.00 0.03 0.03 100 1010.8